Regional Weather Roundup
Issued by NWS

Home | Current Version | Previous Version | Graphics & Text | Print | Product List | Glossary On
Versions: 1 2 3 4 5 6 7 8 9 10 11 12 13 14 15 16 17 18 19 20 21 22 23 24 25 26 27 28 29 30 31 32 33 34 35 36 37 38 39 40 41 42 43 44 45 46 47 48 49 50
000
ASUS43 KIND 051159
RWRIN

WEATHER ROUNDUP FOR INDIANA
NATIONAL WEATHER SERVICE INDIANAPOLIS IN
800 AM EDT SAT SEP 05 2015

NOTE: "FAIR" INDICATES FEW OR NO CLOUDS BELOW 12,000 FEET WITH NO
SIGNIFICANT WEATHER AND/OR OBSTRUCTIONS TO VISIBILITY.

* - STATION DOES NOT REPORT WEATHER SUCH AS PRECIPITATION OR FOG.

+ - STATION NOT QUALITY CONTROLLED BY THE NATIONAL WEATHER SERVICE.
    USE DATA WITH CAUTION...ESPECIALLY DEWPOINT AND RELATIVE
    HUMIDITY OBSERVATIONS.

INZ001>003-010>013-019-020-051300-
NORTHWEST INDIANA

CITY           SKY/WX    TMP DP  RH WIND       PRES   REMARKS
GARY /AIRPORT/ MOCLDY    72  64  78 S8        30.10R
RENSSELAER +   MOCLDY    68  68 100 CALM      30.11R

$$

LMZ046-743>745-051300-
SOUTHERN LAKE MICHIGAN

STATION/POSITION TIME  TEMP    WIND        PRES    WAVE
                       AIR SEA DIR/SP/G            HT
                 (UTC) (F)     (DEG/KT/KT) (MB)    (FT)
BURNS HARBOR     1100   70     190/  9/ 11 1019.0S
MICHIGAN CITY    1100   71     150/ 11/ 14   N/A
5NW MICH CITY    1100   71 73  200/  8/ 12   N/A     1

$$

INZ004-005-014>016-021>024-051300-
NORTH CENTRAL INDIANA

CITY           SKY/WX    TMP DP  RH WIND       PRES   REMARKS
ELKHART        PTCLDY    68  64  88 CALM      30.12
GOSHEN         CLEAR     67  64  90 CALM      30.11R
6HR MIN TEMP:  66; 6HR MAX TEMP:  69;

SOUTH BEND     CLEAR     66  64  93 SW5       30.11S
6HR MIN TEMP:  66; 6HR MAX TEMP:  71;


$$

INZ006>009-017-018-025>027-051300-
NORTHEAST INDIANA

CITY           SKY/WX    TMP DP  RH WIND       PRES   REMARKS
ANGOLA *+      PTCLDY    64  55  72 CALM      30.13R
FORT WAYNE     PTCLDY    65  63  93 CALM      30.14R
6HR MIN TEMP:  64; 6HR MAX TEMP:  68;


$$

INZ028-029-035-036-043>045-051>053-051300-
WEST CENTRAL INDIANA

CITY           SKY/WX    TMP DP  RH WIND       PRES   REMARKS
CRAWFORDSVL +  CLEAR     64  64 100 CALM      30.12R
6HR MIN TEMP:  61; 6HR MAX TEMP:  64;

GREENCASTLE +  CLEAR     63  61  94 CALM      30.13R FOG
LAFAYETTE      PTCLDY    66  65  96 E3        30.10R
6HR MIN TEMP:  63; 6HR MAX TEMP:  67;

TERRE HAUTE    CLEAR     66  63  90 CALM      30.11R
6HR MIN TEMP:  64; 6HR MAX TEMP:  71;


$$

INZ030>032-037>040-046>048-054>057-064-065-051300-
CENTRAL INDIANA

CITY           SKY/WX    TMP DP  RH WIND       PRES   REMARKS
COLUMBUS       CLEAR     64  63  94 CALM      30.14R
FRANKFORT +    CLEAR    N/A N/A N/A E3        30.13S HAZE
GREENWOOD *+   CLEAR     66  63  88 CALM      30.14R
INDIANAPOLIS   PTCLDY    68  65  90 E3        30.12R
6HR MIN TEMP:  67; 6HR MAX TEMP:  71;

-EAGLE CREEK   CLEAR     67  65  93 CALM      30.12R
6HR MIN TEMP:  65; 6HR MAX TEMP:  70;

KOKOMO *+      CLEAR     64 N/A N/A CALM      30.12F
6HR MIN TEMP:  63; 6HR MAX TEMP:  66;

MT COMFORT *+  CLEAR     63 N/A N/A CALM      30.13S
SHELBYVILLE    CLEAR     65  62  90 E5        30.13R FOG
6HR MIN TEMP:  64; 6HR MAX TEMP:  68;


$$

INZ033-034-041-042-049-050-058-059-051300-
EAST CENTRAL INDIANA

CITY           SKY/WX    TMP DP  RH WIND       PRES   REMARKS
MUNCIE         CLEAR     62  62 100 SE6       30.14R
6HR MIN TEMP:  62; 6HR MAX TEMP:  64;


$$

INZ060-061-067>069-081>083-085>088-051300-
SOUTHWEST INDIANA

CITY           SKY/WX    TMP DP  RH WIND       PRES   REMARKS
EVANSVILLE     CLEAR     70  66  87 CALM      30.10R
6HR MIN TEMP:  69; 6HR MAX TEMP:  76;

HUNTINGBURG *+ CLEAR     66  63  88 CALM      30.11R
6HR MIN TEMP:  66; 6HR MAX TEMP:  73;


$$

INZ062-063-066-070>080-084-089>092-051300-
SOUTH CENTRAL AND SOUTHEAST INDIANA

CITY           SKY/WX    TMP DP  RH WIND       PRES   REMARKS
BLOOMINGTON    CLEAR     66  64  93 CALM      30.13R
6HR MIN TEMP:  65; 6HR MAX TEMP:  73;

MADISON *+     PTCLDY    64  63  94 CALM      30.16R
SEYMOUR +      CLEAR     66  66 100 CALM      30.13R

$$




USA.gov is the U.S. government's official web portal to all federal, state and local government web resources and services.